Regional Weather Roundup
Issued by NWS

Home | Current Version | Previous Version | Text Only | Print | Product List | Glossary Off
Versions: 1 2 3 4 5 6 7 8 9 10 11 12 13 14 15 16 17 18 19 20 21 22 23 24 25 26 27 28 29 30 31 32 33 34 35 36 37 38 39 40 41 42 43 44 45 46 47 48 49 50

000
ASUS45 KABQ 260710
RWRNM
NEW MEXICO REGIONAL WEATHER ROUNDUP
NATIONAL WEATHER SERVICE ALBUQUERQUE NM
100 AM MDT SUN MAR 26 2017

NOTE: "FAIR" MEANS FEW OR NO CLOUDS BELOW 12,000 FEET AGL WITH NO
       SIGNIFICANT WEATHER OR OBSTRUCTIONS TO VISION.

      THIS PRODUCT IS RELEASED AS TWO VERSIONS.  ONE VERSION NEAR
      THE TOP OF THE HOUR CONTAINING PRELIMINARY DATA FROM ALBUQUERQUE
      AND OTHER STATIONS.  A FINAL VERSION WITH ADDITIONAL DATA IS
      ISSUED ABOUT 10 MINUTES AFTER THE HOUR.

NMZ501-503-504-510>518-260800-
NORTHWEST PLATEAU/NORTHCENTRAL MOUNTAINS

CITY           SKY/WX    TMP DP  RH WIND       PRES   REMARKS
FARMINGTON     CLOUDY    42  40  92 CALM      29.94S
LOS ALAMOS     CLOUDY    40  33  75 SE5       29.96R
SANTA FE       CLOUDY    46  31  55 SW13      29.93F
TAOS             N/A     37  30  75 SE8       29.94F WCI  31
ANGEL FIRE     LGT RAIN  33  32  97 CALM      29.97S

$$
NMZ402-403-502-505>509-260800-
WESTCENTRAL MOUNTAINS/SOUTHWEST MOUNTAINS

CITY           SKY/WX    TMP DP  RH WIND       PRES   REMARKS
GALLUP         CLOUDY    38  32  79 SW12      29.99F WCI  30
GRANTS         FAIR      33  32  97 CALM      30.01S
SILVER CITY    FAIR      45  26  45 NW9       29.98S

$$
NMZ407-409-411-412-260800-
SOUTHERN DESERTS

CITY           SKY/WX    TMP DP  RH WIND       PRES   REMARKS
DEMING         FAIR      54  26  34 W8        29.93R
LAS CRUCES     FAIR      57  20  24 W3        29.94R
HOLLOMAN AFB   FAIR      65  16  15 CALM      29.92R
ALAMOGORDO     FAIR      61  16  17 W10       29.90R
T OR C         FAIR      57  23  26 NW9       29.92R

$$
NMZ519>523-260800-
CENTRAL VALLEYS/CENTRAL HIGHLANDS

CITY           SKY/WX    TMP DP  RH WIND       PRES   REMARKS
ALBUQUERQUE    FAIR      50  30  46 NE6       29.97R
MORIARTY ARPT  FAIR      48  29  46 W21G30    29.96R
CLINES CORNERS CLOUDY    44  24  45 W21       29.95S
BELEN          FAIR      45  29  53 CALM      29.96F
SOCORRO        FAIR      55  20  25 NW10G21   29.94R

$$
NMZ524>526-539-540-260800-
SOUTHCENTRAL MOUNTAINS

CITY           SKY/WX    TMP DP  RH WIND       PRES   REMARKS
RUIDOSO        FAIR      54  12  19 NW13G22   29.96S

$$
NMZ527>531-260800-
NORTHEAST HIGHLANDS/NORTHEAST PLAINS

CITY           SKY/WX    TMP DP  RH WIND       PRES   REMARKS
LAS VEGAS      FAIR      45  25  45 W17       29.88R
RATON          FAIR      40  27  59 W6        29.82R
CLAYTON        FAIR      41  32  70 S6        29.80F

$$
NMZ532>537-260800-
EASTCENTRAL PLAINS

CITY           SKY/WX    TMP DP  RH WIND       PRES   REMARKS
TUCUMCARI      FAIR      51  25  36 W5        29.77R
CANNON AFB     FAIR      49  26  39 SW6       29.82F
CLOVIS AIRPORT FAIR      48  27  43 S8        29.83F

$$
NMZ028-029-538-260800-
SOUTHEAST PLAINS

CITY           SKY/WX    TMP DP  RH WIND       PRES   REMARKS
ROSWELL        FAIR      51  24  34 S8          N/A
ARTESIA        FAIR      55  27  33 SE8       29.81F
CARLSBAD       FAIR      51  26  37 SW3       29.80S


$$




USA.gov is the U.S. government's official web portal to all federal, state and local government web resources and services.